Tracking 18840 objects as of 17-November-2017
HD Live streaming from Space Station
objects crossing your sky now

FENGYUN 1C DEB

Track FENGYUN 1C DEB now!
10-day predictions


NORAD ID: 36255
Int'l Code: 1999-025DWG
Perigee: 754.8 km
Apogee: 861.0 km
Inclination: 99.5 °
Period: 100.9 minutes
Semi major axis: 7178 km
RCS: 0.0095 m2 (small)
Launch date: May 10, 1999
Source: People's Republic of China (PRC)
Launch site: Taiyaun Space Center, China (TSC)

Note: This is SATELLITE DEBRIS
aabbcc
Your satellite tracking list
Your tracking list is empty




NASA's NSSDC Master Catalog

Two Line Element Set (TLE):
1 36255U 99025DWG 17320.77463141  .00000441  00000-0  19584-3 0  9991
2 36255  99.4933 304.3466 0073951 315.0300 167.7927 14.27295669480803
Source of the keplerian elements: AFSPC